Flag for Norway Weather past 2 weeks in Lillesand, Norway

Now
54 °F

Cool.


Feels Like: 54 °F
Forecast: 46 / 66 °F
Wind: 3 mph from Northeast

Location: Kristiansand / Kjevik

Current Time: Sep 19, 2014 at 2:44:39 AM

Latest Report: Sep 19, 2014 at 2:00 AM


Visibility: N/A

Pressure: 30.11 "Hg

Humidity: 83%

Dew point: 49 °F

Location of LillesandLocation

Historic Weather in Lillesand — Graph

°F

Lillesand temperature yesterday

Maximum temperature yesterday: 64 °F (at 4:00 PM)
Minimum temperature yesterday: 49 °F (at 1:00 AM)
Average temperature yesterday: 55 °F

Past Weeks' High & Low Weather Summary

 TemperatureHumidityPressure
High71 °F (Sep 9, 3:00 PM)100% (Sep 4, 3:00 AM)30.45 "Hg (Sep 4, 3:00 AM)
Low46 °F (Sep 14, 5:00 AM)50% (Sep 9, 3:00 PM)29.80 "Hg (Sep 9, 6:00 AM)
Average57 °F84%30.17 "Hg
* Reported Sep 4 1:00 AM — Sep 19 1:00 AM, Lillesand, Weather by CustomWeather, © 2014

Note: Actual official high and low records may vary slightly from our data, if they occured in-between our weather recording intervals... More about our weather records

Advertising

Lillesand weather history for previous 24 hours

 ConditionsComfort  
Time TempWeatherWind HumidityBarometerVisibility
1:00 AM
Sep 19
52 °FCool.3 mph85%30.12 "HgN/A
12:00 AM53 °FCool.3 mph84%30.12 "HgN/A
11:00 PM
Sep 18
53 °FCool.3 mph85%30.13 "HgN/A
10:00 PM52 °FCool.3 mph90%30.13 "HgN/A
9:00 PM54 °FCool.2 mph86%30.13 "HgN/A
8:00 PM57 °FCool.2 mph77%30.12 "HgN/A
5:00 PM63 °FMild.7 mph58%30.12 "HgN/A
4:00 PM64 °FMild.7 mph54%30.13 "HgN/A
3:00 PM64 °FMild.8 mph61%30.13 "HgN/A
2:00 PM63 °FMild.8 mph67%30.14 "HgN/A
1:00 PM61 °FCool.7 mph75%30.15 "HgN/A
12:00 PM60 °FCool.7 mph77%30.16 "HgN/A
11:00 AM57 °FCool.7 mph79%30.18 "HgN/A
10:00 AM56 °FCool.6 mph81%30.18 "HgN/A
9:00 AM53 °FCool.6 mph86%30.17 "HgN/A
8:00 AM51 °FCool.6 mph90%30.17 "HgN/A
7:00 AM52 °FCool.7 mph88%30.17 "HgN/A
6:00 AM52 °FCool.5 mph89%30.17 "HgN/A
5:00 AM50 °FCool.3 mph91%30.18 "HgN/A
4:00 AM51 °FCool.3 mph88%30.18 "HgN/A
3:00 AM51 °FCool.3 mph87%30.19 "HgN/A
2:00 AM50 °FCool.2 mph88%30.20 "HgN/A
Weather by CustomWeather, © 2014

See weather overviewHow to use our weather pages